Location: Newark
(39.9581°N, 97.2014°W)
Time: 16:47:47
(UTC+00:00)

SR - All Passes

Search period start: 21 February 2020 00:00
Search period end: 02 March 2020 00:00
Orbit: 575 x 881 km, 66.7° (Epoch: 20 February)

Date Brightness Start Highest point End Pass type
(mag) Time Alt. Az. Time Alt. Az. Time Alt. Az.
21 Feb - 00:32:16 10° NW 00:32:36 10° NW 00:32:56 10° NNW visible
21 Feb - 05:44:32 10° N 05:48:19 19° NE 05:51:53 10° E night (unlit)
21 Feb - 07:25:49 10° NW 07:30:57 63° WSW 07:35:36 10° SSE night (unlit)
21 Feb - 20:14:37 10° SE 20:17:48 15° ESE 20:21:01 10° ENE daylight
21 Feb - 21:53:17 10° SSW 21:59:12 82° WNW 22:05:07 10° NNE daylight
21 Feb - 23:38:29 10° W 23:42:11 17° NW 23:45:51 10° N daylight
22 Feb - 04:56:20 10° NNE 04:58:00 11° NE 04:59:38 10° NE visible
22 Feb - 06:36:06 10° NNW 06:41:18 63° ENE 06:46:01 10° SE night (unlit)
22 Feb - 08:19:57 10° WNW 08:22:39 15° WSW 08:25:13 10° SW night (unlit)
22 Feb - 21:03:53 10° S 21:09:36 54° ESE 21:15:19 10° NE daylight
22 Feb - 22:47:01 10° WSW 22:52:01 28° NW 22:56:57 10° N daylight
23 Feb - 05:46:42 10° NNW 05:51:25 32° NE 05:55:44 10° ESE night (unlit)
23 Feb - 07:28:56 10° NW 07:33:25 31° WSW 07:37:32 10° S night (unlit)
23 Feb - 20:15:15 10° SSE 20:20:09 28° ESE 20:25:04 10° NE daylight
23 Feb - 21:56:19 10° SW 22:02:02 48° NW 22:07:41 10° NNE daylight
23 Feb - 23:44:26 10° NW 23:45:33 10° NW 23:46:39 10° NNW daylight
24 Feb - 04:57:40 10° N 05:01:17 18° NE 05:04:42 10° E visible
24 Feb - 06:38:50 10° NW 06:43:59 68° WSW 06:48:38 10° SSE night (unlit)
24 Feb - 19:27:59 10° SE 19:30:53 14° ESE 19:33:48 10° ENE daylight
24 Feb - 21:06:19 10° SSW 21:12:14 86° WNW 21:18:08 10° NNE daylight
24 Feb - 22:51:20 10° W 22:55:10 17° NW 22:58:58 10° N daylight
25 Feb - 04:09:46 10° NNE 04:10:57 11° NE 04:12:06 10° NE visible
25 Feb - 05:49:09 10° NNW 05:54:18 58° ENE 05:58:58 10° SE night (unlit)
25 Feb - 07:32:48 10° WNW 07:35:42 16° WSW 07:38:28 10° SW night (unlit)
25 Feb - 20:16:58 10° S 20:22:39 51° ESE 20:28:18 10° NE daylight
25 Feb - 21:59:56 10° WSW 22:05:00 29° NW 22:10:01 10° N daylight
26 Feb - 04:59:47 10° NNW 05:04:23 30° NE 05:08:37 10° ESE visible
26 Feb - 06:41:55 10° NW 06:46:27 33° WSW 06:50:37 10° S night (unlit)
26 Feb - 19:28:25 10° SSE 19:33:13 26° ESE 19:38:01 10° NE daylight
26 Feb - 21:09:18 10° SW 21:15:03 50° NW 21:20:44 10° NNE daylight
26 Feb - 22:56:58 10° NW 22:58:30 11° NW 23:00:03 10° NNW daylight
27 Feb - 04:10:49 10° N 04:14:14 17° NE 04:17:29 10° E visible
27 Feb - 05:51:51 10° NNW 05:56:59 73° WSW 06:01:38 10° SSE night (unlit)
27 Feb - 18:41:22 10° SE 18:43:57 13° ESE 18:46:32 10° ENE daylight
27 Feb - 20:19:20 10° SSW 20:25:16 89° SE 20:31:10 10° NNE daylight
27 Feb - 22:04:10 10° W 22:08:08 18° NW 22:12:04 10° N daylight
28 Feb - 05:02:12 10° NNW 05:07:18 54° ENE 05:11:55 10° SE visible
28 Feb - 06:45:40 10° WNW 06:48:45 17° WSW 06:51:40 10° SW night (unlit)
28 Feb - 19:30:04 10° S 19:35:41 48° ESE 19:41:18 10° NE daylight
28 Feb - 21:12:50 10° WSW 21:18:00 30° NW 21:23:05 10° N daylight
29 Feb - 04:12:52 10° N 04:17:21 28° NE 04:21:30 10° ESE visible
29 Feb - 05:54:53 10° NW 05:59:29 35° WSW 06:03:42 10° S night (unlit)
29 Feb - 18:41:35 10° SSE 18:46:17 25° ESE 18:50:56 10° NE daylight
29 Feb - 20:22:17 10° SW 20:28:03 53° WNW 20:33:46 10° NNE daylight
29 Feb - 22:09:35 10° NW 22:11:28 11° NW 22:13:19 10° NNW daylight
01 Mar - 03:23:58 10° N 03:27:12 16° NE 03:30:15 10° E visible
01 Mar - 05:04:53 10° NNW 05:10:00 78° WSW 05:14:38 10° SSE visible
01 Mar - 17:54:51 10° SE 17:57:02 12° ESE 17:59:12 10° E daylight
01 Mar - 19:32:23 10° SSW 19:38:18 85° ESE 19:44:11 10° NNE daylight
01 Mar - 21:17:01 10° W 21:21:07 19° NW 21:25:09 10° N daylight
